Torna al catalogo

STARLINK-11515

AttivoComunicazioniVLEO
NORAD 62556·PAYLOAD·🇺🇸 United States

Lanciato Jan 10, 2025 da Cape Canaveral Space Force Station

Loading…

Prossimi Passaggi (prossime 24 ore)

TLE

AggiornatoSource: CelesTrak SupGP

Epoca: Sep 15, 2026, 02:49 UTC

1 62556C 25006C   26258.11784722  .00002462  00000+0  19108-4 0  2586
2 62556  43.0006  78.3932 0001798 275.7686 352.9595 15.70856194    12

Traccia STARLINK-11515 in tempo reale con AllMySat

Download on the App Store